TimeCST,TemperatureF,Dew PointF,Humidity,Sea Level PressureIn,VisibilityMPH,Wind Direction,Wind SpeedMPH,Gust SpeedMPH,PrecipitationIn,Events,Conditions,WindDirDegrees,DateUTC
12:05 AM,32.0,30.2,93,30.30,10.0,Calm,Calm,-,N/A,,Clear,0,2012-11-15 06:05:00
12:25 AM,32.0,30.2,93,30.30,10.0,Calm,Calm,-,N/A,,Clear,0,2012-11-15 06:25:00
12:45 AM,32.0,30.2,93,30.29,10.0,Calm,Calm,-,N/A,,Clear,0,2012-11-15 06:45:00
1:05 AM,32.0,28.4,87,30.30,10.0,Calm,Calm,-,N/A,,Clear,0,2012-11-15 07:05:00
1:25 AM,32.0,30.2,93,30.30,10.0,Calm,Calm,-,N/A,,Clear,0,2012-11-15 07:25:00
1:45 AM,30.2,28.4,93,30.30,10.0,Calm,Calm,-,N/A,,Clear,0,2012-11-15 07:45:00
2:05 AM,30.2,28.4,93,30.30,6.0,Calm,Calm,-,N/A,,Clear,0,2012-11-15 08:05:00
2:25 AM,30.2,28.4,93,30.31,7.0,WNW,3.5,-,N/A,,Clear,290,2012-11-15 08:25:00
2:45 AM,28.4,28.4,100,30.31,10.0,Calm,Calm,-,N/A,,Clear,0,2012-11-15 08:45:00
3:05 AM,30.2,28.4,93,30.31,10.0,Calm,Calm,-,N/A,,Clear,0,2012-11-15 09:05:00
3:25 AM,28.4,28.4,100,30.31,10.0,Calm,Calm,-,N/A,,Clear,0,2012-11-15 09:25:00
3:45 AM,30.2,28.4,93,30.30,10.0,Calm,Calm,-,N/A,,Clear,0,2012-11-15 09:45:00
4:05 AM,30.2,28.4,93,30.30,10.0,Calm,Calm,-,N/A,,Clear,0,2012-11-15 10:05:00
4:25 AM,28.4,26.6,93,30.31,7.0,Calm,Calm,-,N/A,,Clear,0,2012-11-15 10:25:00
4:45 AM,28.4,28.4,100,30.31,9.0,Calm,Calm,-,N/A,,Clear,0,2012-11-15 10:45:00
5:05 AM,28.4,26.6,93,30.32,10.0,Calm,Calm,-,N/A,,Clear,0,2012-11-15 11:05:00
5:25 AM,28.4,26.6,93,30.32,9.0,Calm,Calm,-,N/A,,Clear,0,2012-11-15 11:25:00
5:45 AM,28.4,26.6,93,30.32,10.0,Calm,Calm,-,N/A,,Clear,0,2012-11-15 11:45:00
6:05 AM,28.4,26.6,93,30.33,10.0,Calm,Calm,-,N/A,,Clear,0,2012-11-15 12:05:00
6:25 AM,28.4,26.6,93,30.33,10.0,Calm,Calm,-,N/A,,Clear,0,2012-11-15 12:25:00
6:45 AM,28.4,26.6,93,30.33,10.0,Calm,Calm,-,N/A,,Clear,0,2012-11-15 12:45:00
7:05 AM,30.2,28.4,93,30.34,10.0,Calm,Calm,-,N/A,,Clear,0,2012-11-15 13:05:00
7:25 AM,32.0,28.4,87,30.34,10.0,Calm,Calm,-,N/A,,Clear,0,2012-11-15 13:25:00
7:45 AM,32.0,32.0,100,30.34,10.0,Calm,Calm,-,N/A,,Clear,0,2012-11-15 13:45:00
8:05 AM,35.6,32.0,87,30.34,10.0,Calm,Calm,-,N/A,,Clear,0,2012-11-15 14:05:00
8:25 AM,37.4,32.0,81,30.34,10.0,Calm,Calm,-,N/A,,Clear,0,2012-11-15 14:25:00
8:45 AM,39.2,32.0,75,30.35,10.0,WNW,3.5,-,N/A,,Clear,300,2012-11-15 14:45:00
9:05 AM,42.8,33.8,70,30.36,10.0,NNW,4.6,-,N/A,,Clear,340,2012-11-15 15:05:00
9:25 AM,44.6,33.8,66,30.36,10.0,Calm,Calm,-,N/A,,Clear,0,2012-11-15 15:25:00
9:45 AM,46.4,33.8,62,30.36,10.0,WNW,3.5,-,N/A,,Clear,300,2012-11-15 15:45:00
10:05 AM,48.2,35.6,62,30.36,10.0,NNW,3.5,-,N/A,,Clear,340,2012-11-15 16:05:00
10:25 AM,53.6,32.0,44,30.35,10.0,NE,5.8,-,N/A,,Clear,40,2012-11-15 16:25:00
10:45 AM,53.6,32.0,44,30.34,10.0,North,6.9,-,N/A,,Clear,360,2012-11-15 16:45:00
11:05 AM,55.4,32.0,41,30.34,10.0,North,5.8,-,N/A,,Clear,10,2012-11-15 17:05:00
11:25 AM,55.4,32.0,41,30.33,10.0,NNE,6.9,-,N/A,,Clear,20,2012-11-15 17:25:00
11:45 AM,55.4,33.8,44,30.31,10.0,North,3.5,-,N/A,,Clear,10,2012-11-15 17:45:00
12:05 PM,57.2,33.8,41,30.30,10.0,NNW,5.8,-,N/A,,Clear,340,2012-11-15 18:05:00
12:25 PM,57.2,33.8,41,30.30,10.0,North,6.9,-,N/A,,Clear,350,2012-11-15 18:25:00
12:45 PM,59.0,33.8,39,30.29,10.0,North,9.2,-,N/A,,Clear,10,2012-11-15 18:45:00
1:05 PM,59.0,32.0,36,30.28,10.0,North,8.1,-,N/A,,Clear,10,2012-11-15 19:05:00
1:25 PM,59.0,33.8,39,30.28,10.0,North,8.1,-,N/A,,Clear,360,2012-11-15 19:25:00
1:45 PM,59.0,33.8,39,30.28,10.0,North,9.2,-,N/A,,Clear,360,2012-11-15 19:45:00
2:05 PM,57.2,33.8,41,30.27,10.0,NW,8.1,-,N/A,,Clear,320,2012-11-15 20:05:00
2:25 PM,59.0,33.8,39,30.27,10.0,NNE,6.9,-,N/A,,Clear,20,2012-11-15 20:25:00
2:45 PM,59.0,33.8,39,30.27,10.0,NNE,8.1,-,N/A,,Clear,20,2012-11-15 20:45:00
3:05 PM,57.2,32.0,38,30.27,10.0,NNW,6.9,-,N/A,,Clear,340,2012-11-15 21:05:00
3:25 PM,57.2,32.0,38,30.26,10.0,North,5.8,-,N/A,,Clear,10,2012-11-15 21:25:00
3:45 PM,57.2,32.0,38,30.27,10.0,North,5.8,-,N/A,,Clear,360,2012-11-15 21:45:00
4:05 PM,55.4,32.0,41,30.27,10.0,North,5.8,-,N/A,,Clear,350,2012-11-15 22:05:00
4:45 PM,53.6,32.0,44,30.27,10.0,North,5.8,-,N/A,,Clear,350,2012-11-15 22:45:00
5:05 PM,51.8,32.0,47,30.28,10.0,North,5.8,-,N/A,,Clear,350,2012-11-15 23:05:00
5:25 PM,50.0,32.0,50,30.28,10.0,North,4.6,-,N/A,,Clear,350,2012-11-15 23:25:00
5:45 PM,50.0,32.0,50,30.29,10.0,North,4.6,-,N/A,,Clear,350,2012-11-15 23:45:00
6:05 PM,48.2,32.0,54,30.30,10.0,NNW,4.6,-,N/A,,Clear,330,2012-11-16 00:05:00
6:25 PM,48.2,32.0,54,30.30,10.0,NNW,4.6,-,N/A,,Clear,330,2012-11-16 00:25:00
6:45 PM,46.4,32.0,57,30.31,10.0,NW,5.8,-,N/A,,Clear,320,2012-11-16 00:45:00
7:25 PM,46.4,32.0,57,30.31,10.0,NNW,5.8,-,N/A,,Clear,330,2012-11-16 01:25:00
7:45 PM,44.6,32.0,61,30.31,10.0,NNW,5.8,-,N/A,,Clear,330,2012-11-16 01:45:00
8:05 PM,44.6,32.0,61,30.32,10.0,NNW,5.8,-,N/A,,Clear,330,2012-11-16 02:05:00
8:25 PM,44.6,32.0,61,30.32,10.0,NW,4.6,-,N/A,,Clear,320,2012-11-16 02:25:00
8:45 PM,42.8,32.0,66,30.32,10.0,NNW,3.5,-,N/A,,Clear,330,2012-11-16 02:45:00
9:05 PM,41.0,32.0,70,30.32,10.0,NNW,3.5,-,N/A,,Clear,330,2012-11-16 03:05:00
9:25 PM,41.0,32.0,70,30.33,10.0,WNW,3.5,-,N/A,,Clear,300,2012-11-16 03:25:00
9:45 PM,41.0,32.0,70,30.33,10.0,NW,3.5,-,N/A,,Clear,320,2012-11-16 03:45:00
10:05 PM,39.2,32.0,75,30.33,10.0,Calm,Calm,-,N/A,,Clear,0,2012-11-16 04:05:00
10:25 PM,37.4,32.0,81,30.33,10.0,NNW,3.5,-,N/A,,Clear,330,2012-11-16 04:25:00
10:45 PM,37.4,32.0,81,30.33,10.0,NW,4.6,-,N/A,,Clear,320,2012-11-16 04:45:00
11:05 PM,35.6,32.0,87,30.33,10.0,NW,4.6,-,N/A,,Clear,320,2012-11-16 05:05:00
11:25 PM,33.8,32.0,93,30.33,10.0,Calm,Calm,-,N/A,,Clear,0,2012-11-16 05:25:00
11:45 PM,35.6,32.0,87,30.33,10.0,Calm,Calm,-,N/A,,Clear,0,2012-11-16 05:45:00